User: anonymous   Login
Location: Asheville, NC
(35.6000°N, 82.5500°W)
Time: 00:30:46
(UTC-04:00)
Language:

XW-2F - Orbit

View from above orbital plane
View from above orbital plane
View from above satellite
View from above satellite

Ground track
Ground track

The orbit data is extracted from the following two-line orbital elements,

1 40910U 15049M   18175.80710443  .00001201  00000-0  64849-4 0  9991
2 40910  97.4569 180.1834 0015163   3.8485 356.2861 15.16564425152609
Epoch (UTC): 24 June 2018 19:22:13
Eccentricity: 0.0015163
inclination: 97.4569°
perigee height: 506 km
apogee height: 526 km
right ascension of ascending node: 180.1834°
argument of perigee: 3.8485°
revolutions per day: 15.16564425
mean anomaly at epoch: 356.2861°
orbit number at epoch: 15260

The dashed part of the orbit path shows where the satellite is in the earth's shadow,  

DLR